Weather History for KOLZ - April, 2013

Change the Weather History Date:

Thursday, April 25, 2013

  Actual Average Record
Temperature  
Mean Temperature 42 °F -  
Max Temperature 53 °F 65 °F 87 °F (1986)
Min Temperature 32 °F 39 °F 22 °F (1967)
Degree Days  
Heating Degree Days 22    
Moisture  
Dew Point 27 °F    
Average Humidity 61    
Maximum Humidity 93    
Minimum Humidity 22    
Precipitation  
Precipitation 0.00 in - - ()
Sea Level Pressure  
Sea Level Pressure 30.18 in    
Wind  
Wind Speed 11 mph (West)    
Max Wind Speed 21 mph    
Max Gust Speed 28 mph    
Visibility 10 miles    
Events      
Averages and records for this station are not official NWS values.
T = Trace of Precipitation, MM = Missing Value Source: NWS Daily Summary

Daily Weather History Graph

Daily Weather History Graph

Search for Another Location

Airport or City:

Trip Planner

Search our weather history database for the weather conditions in past years. The results will help you decide how hot, cold, wet, or windy it might be!

Date:

Astronomy

Apr. 25, 2013 Rise Set
Actual Time 6:10 AM CDT 8:01 PM CDT
Civil Twilight 5:40 AM CDT 8:32 PM CDT
Nautical Twilight 5:03 AM CDT 9:09 PM CDT
Astronomical Twilight 4:23 AM CDT 9:49 PM CDT
Moon 8:16 PM CDT (4/25) 5:54 AM CDT (4/25)
Length of Visible Light 14h 51m
Length of Day
13h 51m
Full, 100% of the Moon is Illuminated
Apr 25
Full
Apr 25
Full
May 2
Last Quarter
May 9
New
May 17
First Quarter

Hourly Weather History & Observations

Time (CDT) Temp. Windchill Dew Point Humidity Pressure Visibility Wind Dir Wind Speed Gust Speed Precip Events Conditions
12:15 AM 39.2 °F 32.0 °F 35.6 °F 87% 30.05 in 10.0 mi West 11.5 mph 17.3 mph N/A   Unknown
12:35 AM 37.4 °F 29.8 °F 33.8 °F 87% 30.05 in 10.0 mi West 11.5 mph - N/A   Unknown
12:55 AM 37.4 °F 30.8 °F 35.6 °F 93% 30.06 in 10.0 mi West 9.2 mph - N/A   Unknown
1:15 AM 37.4 °F 30.3 °F 35.6 °F 93% 30.06 in 10.0 mi West 10.4 mph - N/A   Unknown
1:35 AM 37.4 °F 28.2 °F 33.8 °F 87% 30.06 in 10.0 mi West 16.1 mph - N/A   Unknown
1:55 AM 37.4 °F 28.5 °F 33.8 °F 87% 30.06 in 10.0 mi West 15.0 mph - N/A   Unknown
2:15 AM 37.4 °F 29.3 °F 33.8 °F 87% 30.06 in 10.0 mi West 12.7 mph - N/A   Unknown
2:35 AM 37.4 °F 26.9 °F 32.0 °F 81% 30.06 in 10.0 mi West 20.7 mph 27.6 mph N/A   Unknown
2:55 AM 35.6 °F 24.5 °F 30.2 °F 81% 30.08 in 10.0 mi WNW 20.7 mph 25.3 mph N/A   Unknown
3:15 AM 33.8 °F 24.8 °F 30.2 °F 87% 30.09 in 10.0 mi West 12.7 mph - N/A   Unknown
3:35 AM 33.8 °F 24.3 °F 30.2 °F 87% 30.09 in 10.0 mi West 13.8 mph - N/A   Unknown
3:55 AM 33.8 °F 25.3 °F 28.4 °F 81% 30.10 in 10.0 mi West 11.5 mph - N/A   Unknown
4:15 AM 32.0 °F 22.5 °F 28.4 °F 87% 30.10 in 10.0 mi West 12.7 mph - N/A   Unknown
4:35 AM 32.0 °F 21.6 °F 28.4 °F 87% 30.11 in 10.0 mi West 15.0 mph - N/A   Unknown
4:55 AM 32.0 °F 22.1 °F 28.4 °F 87% 30.12 in 10.0 mi West 13.8 mph 20.7 mph N/A   Unknown
5:15 AM 32.0 °F 20.8 °F 26.6 °F 80% 30.12 in 10.0 mi West 17.3 mph - N/A   Unknown
5:35 AM 32.0 °F 20.5 °F 23.0 °F 69% 30.13 in 10.0 mi West 18.4 mph - N/A   Unknown
5:55 AM 32.0 °F 20.8 °F 23.0 °F 69% 30.14 in 10.0 mi West 17.3 mph - N/A   Unknown
6:15 AM 32.0 °F 21.2 °F 23.0 °F 69% 30.15 in 10.0 mi WNW 16.1 mph 21.9 mph N/A   Unknown
6:35 AM 32.0 °F 21.2 °F 23.0 °F 69% 30.16 in 10.0 mi WNW 16.1 mph 20.7 mph N/A   Unknown
6:55 AM 32.0 °F 22.5 °F 24.8 °F 75% 30.17 in 10.0 mi WNW 12.7 mph - N/A   Unknown
7:15 AM 32.0 °F 22.5 °F 24.8 °F 75% 30.18 in 10.0 mi WNW 12.7 mph - N/A   Unknown
7:35 AM 32.0 °F 22.5 °F 24.8 °F 75% 30.19 in 10.0 mi WNW 12.7 mph - N/A   Unknown
7:55 AM 32.0 °F 21.6 °F 24.8 °F 75% 30.20 in 10.0 mi WNW 15.0 mph 19.6 mph N/A   Unknown
8:15 AM 33.8 °F 23.9 °F 26.6 °F 75% 30.21 in 10.0 mi WNW 15.0 mph 21.9 mph N/A   Unknown
8:35 AM 33.8 °F 23.9 °F 26.6 °F 75% 30.21 in 10.0 mi WNW 15.0 mph 20.7 mph N/A   Unknown
8:55 AM 35.6 °F 25.9 °F 26.6 °F 70% 30.22 in 10.0 mi WNW 16.1 mph 21.9 mph N/A   Unknown
9:15 AM 35.6 °F 25.9 °F 26.6 °F 70% 30.23 in 10.0 mi WNW 16.1 mph - N/A   Unknown
9:35 AM 35.6 °F 26.2 °F 28.4 °F 75% 30.23 in 10.0 mi NW 15.0 mph 19.6 mph N/A   Unknown
9:55 AM 37.4 °F 28.5 °F 28.4 °F 70% 30.23 in 10.0 mi NW 15.0 mph 19.6 mph N/A   Unknown
10:15 AM 37.4 °F 28.5 °F 28.4 °F 70% 30.24 in 10.0 mi WNW 15.0 mph - N/A   Unknown
10:55 AM 41.0 °F 35.2 °F 28.4 °F 61% 30.25 in 10.0 mi WNW 9.2 mph - N/A   Unknown
11:55 AM 42.8 °F 37.0 °F 28.4 °F 57% 30.25 in 10.0 mi NW 10.4 mph - N/A   Unknown
12:15 PM 44.6 °F 39.2 °F 28.4 °F 53% 30.26 in 10.0 mi West 10.4 mph - N/A   Unknown
12:35 PM 44.6 °F 39.7 °F 26.6 °F 49% 30.26 in 10.0 mi West 9.2 mph 16.1 mph N/A   Unknown
12:55 PM 44.6 °F 39.7 °F 26.6 °F 49% 30.25 in 10.0 mi WNW 9.2 mph 18.4 mph N/A   Unknown
1:15 PM 46.4 °F 41.9 °F 26.6 °F 46% 30.25 in 10.0 mi West 9.2 mph 16.1 mph N/A   Unknown
1:35 PM 46.4 °F 43.5 °F 26.6 °F 46% 30.25 in 10.0 mi West 5.8 mph - N/A   Unknown
1:55 PM 46.4 °F 42.9 °F 24.8 °F 43% 30.24 in 10.0 mi WSW 6.9 mph - N/A   Unknown
2:15 PM 48.2 °F - 23.0 °F 37% 30.24 in 10.0 mi WNW 10.4 mph 17.3 mph N/A   Unknown
2:35 PM 50.0 °F - 21.2 °F 32% 30.24 in 10.0 mi WSW 9.2 mph - N/A   Unknown
2:55 PM 50.0 °F - 19.4 °F 30% 30.24 in 10.0 mi WNW 4.6 mph - N/A   Unknown
3:15 PM 50.0 °F - 19.4 °F 30% 30.24 in 10.0 mi SW 3.5 mph - N/A   Unknown
3:35 PM 51.8 °F - 19.4 °F 28% 30.23 in 10.0 mi SSW 6.9 mph - N/A   Unknown
3:55 PM 51.8 °F - 19.4 °F 28% 30.23 in 10.0 mi Calm Calm - N/A   Unknown
4:15 PM 51.8 °F - 14.0 °F 22% 30.22 in 10.0 mi Calm Calm - N/A   Unknown
4:35 PM 53.6 °F - 17.6 °F 24% 30.22 in 10.0 mi West 8.1 mph - N/A   Unknown
4:55 PM 53.6 °F - 21.2 °F 28% 30.21 in 10.0 mi West 3.5 mph 17.3 mph N/A   Unknown
5:15 PM 53.6 °F - 21.2 °F 28% 30.21 in 10.0 mi West 6.9 mph - N/A   Unknown
5:35 PM 53.6 °F - 21.2 °F 28% 30.21 in 10.0 mi SSW 4.6 mph - N/A   Unknown
5:55 PM 53.6 °F - 23.0 °F 30% 30.20 in 10.0 mi WSW 4.6 mph - N/A   Unknown
6:15 PM 53.6 °F - 23.0 °F 30% 30.20 in 10.0 mi SW 3.5 mph - N/A   Unknown
6:35 PM 53.6 °F - 24.8 °F 33% 30.19 in 10.0 mi Calm Calm - N/A   Unknown
6:55 PM 53.6 °F - 24.8 °F 33% 30.19 in 10.0 mi Calm Calm - N/A   Unknown
7:15 PM 51.8 °F - 30.2 °F 44% 30.18 in 10.0 mi Calm Calm - N/A   Unknown
7:35 PM 50.0 °F - 30.2 °F 47% 30.18 in 10.0 mi Calm Calm - N/A   Unknown
7:55 PM 48.2 °F - 32.0 °F 54% 30.18 in 10.0 mi Calm Calm - N/A   Unknown
8:15 PM 46.4 °F - 32.0 °F 57% 30.19 in 10.0 mi Calm Calm - N/A   Unknown
8:35 PM 44.6 °F - 32.0 °F 61% 30.20 in 10.0 mi Calm Calm - N/A   Unknown
8:55 PM 44.6 °F - 32.0 °F 61% 30.20 in 10.0 mi Calm Calm - N/A   Unknown
9:15 PM 44.6 °F - 32.0 °F 61% 30.21 in 10.0 mi Calm Calm - N/A   Unknown
9:35 PM 44.6 °F - 32.0 °F 61% 30.21 in 10.0 mi Calm Calm - N/A   Unknown
9:55 PM 42.8 °F - 32.0 °F 66% 30.21 in 10.0 mi Calm Calm - N/A   Unknown
10:15 PM 42.8 °F - 32.0 °F 66% 30.21 in 10.0 mi Calm Calm - N/A   Unknown
10:35 PM 42.8 °F - 32.0 °F 66% 30.20 in 10.0 mi Calm Calm - N/A   Unknown
10:55 PM 42.8 °F 37.5 °F 32.0 °F 66% 30.19 in 10.0 mi SE 9.2 mph - N/A   Unknown
11:15 PM 42.8 °F 37.0 °F 32.0 °F 66% 30.19 in 10.0 mi SE 10.4 mph - N/A   Unknown
11:35 PM 42.8 °F 36.6 °F 32.0 °F 66% 30.19 in 10.0 mi SE 11.5 mph - N/A   Unknown
11:55 PM 42.8 °F 37.0 °F 32.0 °F 66% 30.19 in 10.0 mi SSE 10.4 mph - N/A   Unknown